Other Surface Observations
Issued by NWS

Home | Current Version | Previous Version | Text Only | Print | Product List | Glossary On
Versions: 1 2 3 4 5 6 7 8 9 10 11 12 13 14 15 16 17 18 19 20 21 22 23 24 25 26 27 28 29 30 31 32 33 34 35 36 37 38 39 40 41 42 43 44 45 46 47 48 49 50
000
SXUS52 KTAE 061305
OSOTAE
OSOTAE
North Florida/South Alabama/Southwest Georgia Weather Roundup
National Weather Service Tallahassee Florida
800 AM EST FRI MAR 06 2015

Note: "fair" indicates few or no clouds below 12,000 feet with no
significant weather and/or obstructions to visibility.

!FLZ017-115-028-034-025-061400
...North Florida...

CITY           SKY/WX    TMP DP  RH WIND       PRES   REMARKS
TALLAHASSEE    PTSUNNY   43  34  70 N9        30.31R WCI  38
APALACHICOLA   PTSUNNY   45  34  65 N14       30.29R WCI  38
PERRY          NOT AVBL
CROSS CITY       N/A     51  46  83 NE10      30.25R
JACKSONVILLE   DRIZZLE   47  47 100 NE16      30.30R FOG     WCI  40
$$

!FLZ112-006-005-002-011-061400
...Florida Panhandle...

CITY           SKY/WX    TMP DP  RH WIND       PRES   REMARKS
MARIANNA       MOSUNNY   34  28  79 N9        30.35R WCI  27
BONIFAY        FAIR      32  26  78 N14       30.38R WCI  22
PANAMA CITY NW FAIR      34  27  75 N13G21    30.33R WCI  25
TYNDALL AFB    MOSUNNY   37  31  77 N10       30.33R WCI  30
TYND DRONE APT FAIR      37  32  82 N15G25    30.32R WCI  28
DE FUNIAK SPR  FAIR      30  24  77 N10G21    30.37R WCI  21
EGLIN AFB      PTSUNNY   31  24  74 N13       30.37R WCI  21
DESTIN         MOSUNNY   33  25  72 N16       30.37R WCI  23
HURLBURT       SUNNY     31  20  63 N18G24    30.36R WCI  19
CRESTVIEW      MOSUNNY   30  23  75 N10G16    30.39R WCI  21
PENSACOLA      PTCLDY    29  21  72 N15G22    30.38R WCI  18
$$

!ALZ063-066-061400
...South Alabama...

CITY           SKY/WX    TMP DP  RH WIND       PRES   REMARKS
DOTHAN         CLOUDY    31  25  78 N14       30.39R WCI  21
OZARK CAIRNS   CLOUDY    30  22  72 N12       30.36S WCI  21
FT RUCKER HELI CLOUDY    30  23  75 N10       30.37R WCI  21
RUCKER HELI 3  PTSUNNY   29  24  81 N8G21     30.37S WCI  21
RUCKER HELI 2  CLOUDY    30  23  75 N13       30.37R WCI  20
FLORALA APT    MOSUNNY   29  22  75 N10       30.39R WCI  20
ANDALUSIA      MOSUNNY   31  20  63 N12       30.39R WCI  22
TROY           CLOUDY    28  21  75 N14       30.40R WCI  17
EUFALA         CLOUDY    33  27  78 VRB6      30.38R WCI  28
MOBILE         PTCLDY    27  18  69 N14       30.43R WCI  16
$$

!GAZ120>161-061400
...Southwest and South Central Georgia...

CITY           SKY/WX    TMP DP  RH WIND       PRES   REMARKS
THOMASVILLE    CLOUDY    43  36  75 NE7       30.32R WCI  39
BAINBRIDGE     CLOUDY    37  32  81 N9        30.35R WCI  31
MOODY AFB      CLOUDY    44  38  82 N10       30.29R WCI  38
VALDOSTA       CLOUDY    44  39  82 NE13      30.30R WCI  38
MOULTRIE       CLOUDY    41  36  81 N7        30.32R WCI  36
BLAKELY        CLOUDY    36  32  87 N8        30.37R WCI  29
ALBANY         CLOUDY    38  32  79 VRB5      30.37R WCI  34
TIFTON         CLOUDY    40  36  84 N5        30.32R WCI  37
FITZGERALD     CLOUDY    42  39  91 N7        30.35R WCI  37
CORDELE        CLOUDY    39  34  82 N7        30.37R WCI  34
AMERICUS       CLOUDY    32  32 100 N8        30.38R FOG     WCI  25
HOMERVILLE     CLOUDY    46  43  87 N7        30.31R WCI  43
$$

!GMZ750-755-770-775-061400
...Coastal and Buoy Obs...

STATION/POSITION TIME  TEMP    WIND        PRES    VSBY  WAVE
                       AIR SEA DIR/SP/G                  HT/PER
                 (UTC) (F)     (DEG/KT/KT) (MB)    (MI)  (FT/S)
KEATON BEACH     1200   47      10/ 10/ 14 1024.1R
CEDAR KEY        1156   56      30/ 10/ 14 1023.2R
C TOWER          1200   44      20/ 21/ 23 1024.2R
APALACHICOLA BUO 1200   57 68   30/ 19/ 23 1022.2R         7/ 6
PANAMA CITY BUOY NOT AVBL
MOBILE BUOY      1229   43 67   20/ 19/ 23 1028.4R         7/ 7
ORANGE BCH AL BU 1300   35 61  360/ 19/ 23 1027.5R         3/ 4
$$



USA.gov is the U.S. government's official web portal to all federal, state and local government web resources and services.